7 * 24
多渠道服务支持
STARLINK-37325(NORAD编号68748)是美国太空探索技术公司(SpaceX)星链(Starlink)低轨卫星互联网星座的成员卫星。星链项目计划打造由数万颗卫星组成的全球通信网络,为全球提供高带宽互联网接入服务。该卫星部署于近地轨道,属于星链组网扩容的一员,承担星座通信转发任务,助力星链实现更广泛的覆盖与更高的通信容量,支撑全球偏远地区网络接入及多场景通信服务,目前处于在轨运行状态,是星链大规模组网进程中的卫星之一。
美国
(US)
| 数据来源 | 国际轨道数据 |
| 星历时间: | 2026-05-24T12:00:02+0800 1天前 查看轨道信息 |
| 半长轴: | 6797.224km |
| 偏心率: | 0.0002244 |
| 轨道倾角: | 97.285° |
| 近地点辐角 | 90.371° |
| 升交点赤经 | 7.699° |
| 平近点角 | 21.019° |
| 近地点: | 417.561km |
| 远地点: | 420.613km |
| 周期: | 92.952分钟 |
| 每日圈数: | 15.491926 |